Home > Weather > Hollywood > Past weeks

Flag for USA Past Weather in Hollywood, California, USA — Yesterday and Last 2 Weeks

Now
65 °F

Clear.


Feels Like: 65 °F
Forecast: 62 / 84 °F
Wind: 6 mph from Southeast

Location: Bob Hope Airport

Current Time: Aug 28, 2016 at 2:01:47 AM

Latest Report: Aug 28, 2016 at 12:53 AM


Visibility: 10 mi

Pressure: 29.97 "Hg

Humidity: 81%

Dew Point: 59 °F

Location of HollywoodLocation

Past Weather in Hollywood — Graph

°F

Hollywood Temperature Yesterday

Maximum temperature yesterday: 79 °F (at 3:53 PM)
Minimum temperature yesterday: 61 °F (at 12:53 AM)
Average temperature yesterday: 68 °F

High & Low Weather Summary for the Past Weeks

 TemperatureHumidityPressure
High100 °F (Aug 15, 2:53 PM)90% (Aug 27, 1:53 AM)30.01 "Hg (Aug 27, 1:53 AM)
Low61 °F (Aug 27, 12:53 AM)8% (Aug 17, 1:53 PM)29.75 "Hg (Aug 16, 5:53 PM)
Average75 °F54%29.87 "Hg
* Reported Aug 13 12:53 AM — Aug 28 12:53 AM, Hollywood, Weather by CustomWeather, © 2016

Note: Actual official high and low records may vary slightly from our data, if they occured in-between our weather recording intervals... More about our weather records

Advertising

Hollywood Weather History for the Previous 24 Hours

Scroll right to see more
 ConditionsComfort  
Time TempWeatherWind HumidityBarometerVisibility
12:53 AM
Sun, Aug 28
65 °FClear.6 mph81%29.97 "Hg10 mi
11:53 PM
Sat, Aug 27
66 °FClear.7 mph78%29.95 "Hg10 mi
10:53 PM67 °FClear.6 mph73%29.95 "Hg10 mi
9:53 PM67 °FClear.6 mph73%29.94 "Hg10 mi
8:53 PM67 °FClear.8 mph73%29.93 "Hg10 mi
7:53 PM69 °FSunny.7 mph68%29.91 "Hg10 mi
6:53 PM72 °FSunny.10 mph61%29.89 "Hg10 mi
5:53 PM74 °FSunny.10 mph57%29.88 "Hg10 mi
4:53 PM78 °FSunny.8 mph50%29.88 "Hg10 mi
3:53 PM79 °FSunny.10 mph48%29.89 "Hg10 mi
2:53 PM77 °FSunny.7 mph50%29.91 "Hg10 mi
1:53 PM76 °FSunny.7 mph52%29.93 "Hg9 mi
12:53 PM74 °FSunny.7 mph56%29.95 "Hg9 mi
11:53 AM71 °FSunny.No wind59%29.96 "Hg6 mi
10:53 AM68 °FPartly sunny.7 mph68%29.98 "Hg7 mi
9:53 AM66 °FOvercast.No wind70%29.98 "Hg5 mi
8:53 AM65 °FOvercast.5 mph73%29.97 "Hg5 mi
8:00 AM64 °FOvercast.3 mph75%29.99 "Hg5 mi
6:53 AM63 °FOvercast.No wind78%29.94 "Hg5 mi
5:53 AM63 °FOvercast.5 mph78%29.93 "Hg9 mi
4:53 AM62 °FOvercast.No wind80%29.92 "Hg10 mi
3:53 AM62 °FOvercast.No wind83%29.92 "Hg9 mi
2:53 AM62 °FOvercast.5 mph83%29.92 "Hg7 mi
Weather by CustomWeather, © 2016

See weather overviewHow to use our weather pages